RUK5HT EGBB-GMMX

Flight info

Callsign RUK5HT
Flight time N/A
Altitude 35000
Route CPT Y321 PEPIS Q41 SAM M195 LORKU DCT POZOF DCT BALDA/N0458F370 DCT BATAX DCT ALAGU DCT AMSEL UR722 SAK UW900 SLK UZ801 VALBA UG850 OBOGA
Aircraft B738/M-SDE2E3FGHIRWXY/LB1

Departure

Time 2026-04-29 16:07
Airport Birmingham Airport (EGBB)

Arrival

Time N/A
Airport Marrakesh Menara Airport (GMMX)
Time Latitude Longitude Altitude Speed Heading
2026-04-29 16:06 52.40140 -1.71273 4552 ft 231 kts 195°
2026-04-29 16:07 52.38656 -1.71472 5363 ft 209 kts 158°
2026-04-29 16:07 52.37270 -1.70720 5786 ft 208 kts 145°
2026-04-29 16:07 52.36110 -1.69375 5985 ft 212 kts 140°
2026-04-29 16:07 52.34843 -1.68078 5975 ft 215 kts 145°
2026-04-29 16:08 52.33580 -1.66691 6000 ft 230 kts 138°
2026-04-29 16:08 52.32528 -1.65459 5993 ft 245 kts 143°
2026-04-29 16:08 52.32258 -1.65180 5973 ft 247 kts 144°
2026-04-29 16:08 52.30732 -1.63818 6032 ft 254 kts 149°
2026-04-29 16:09 52.29109 -1.62599 6796 ft 257 kts 152°
2026-04-29 16:09 52.27466 -1.61458 7846 ft 258 kts 153°
2026-04-29 16:09 52.25792 -1.60333 8796 ft 262 kts 154°
2026-04-29 16:09 52.24072 -1.59233 9699 ft 268 kts 157°
2026-04-29 16:10 52.22301 -1.58326 10779 ft 265 kts 158°
2026-04-29 16:10 52.20517 -1.57448 11566 ft 272 kts 159°
2026-04-29 16:10 52.18691 -1.56542 12398 ft 277 kts 159°
2026-04-29 16:10 52.16839 -1.55620 13366 ft 278 kts 159°
2026-04-29 16:11 52.14983 -1.54691 14348 ft 280 kts 159°
2026-04-29 16:11 52.13110 -1.53748 15167 ft 285 kts 159°
2026-04-29 16:11 52.11203 -1.52786 16022 ft 288 kts 159°
2026-04-29 16:11 52.09281 -1.51819 16923 ft 291 kts 159°
2026-04-29 16:12 52.07330 -1.50838 17807 ft 294 kts 159°
2026-04-29 16:12 52.05366 -1.49851 18666 ft 298 kts 159°
2026-04-29 16:12 52.03364 -1.48845 19380 ft 303 kts 159°
2026-04-29 16:12 52.01346 -1.47831 19944 ft 310 kts 159°
2026-04-29 16:13 51.99265 -1.46788 20692 ft 314 kts 159°
2026-04-29 16:13 51.97174 -1.45742 21450 ft 317 kts 159°
2026-04-29 16:13 51.95056 -1.44683 22199 ft 320 kts 159°
2026-04-29 16:13 51.92911 -1.43612 22925 ft 324 kts 160°
2026-04-29 16:14 51.90741 -1.42529 23649 ft 329 kts 160°
2026-04-29 16:14 51.88540 -1.41431 24261 ft 332 kts 160°
2026-04-29 16:14 51.86318 -1.40325 24884 ft 335 kts 160°
2026-04-29 16:14 51.84080 -1.39212 25509 ft 338 kts 161°
2026-04-29 16:15 51.81830 -1.38094 26094 ft 341 kts 161°
2026-04-29 16:15 51.79539 -1.36957 26609 ft 347 kts 160°
2026-04-29 16:15 51.77213 -1.35803 27183 ft 350 kts 161°
2026-04-29 16:15 51.74887 -1.34650 27798 ft 352 kts 161°
2026-04-29 16:16 51.72520 -1.33478 28303 ft 356 kts 161°
2026-04-29 16:16 51.70170 -1.32316 28795 ft 361 kts 161°
2026-04-29 16:16 51.67753 -1.31122 29310 ft 364 kts 161°
2026-04-29 16:16 51.65327 -1.29925 29957 ft 365 kts 161°
2026-04-29 16:17 51.62876 -1.28717 30339 ft 371 kts 161°
2026-04-29 16:17 51.60400 -1.27498 30778 ft 373 kts 161°
2026-04-29 16:17 51.57926 -1.26282 31454 ft 369 kts 161°
2026-04-29 16:17 51.55474 -1.25077 31885 ft 372 kts 161°
2026-04-29 16:18 51.52968 -1.23847 32046 ft 382 kts 162°
2026-04-29 16:18 51.50400 -1.22595 32459 ft 383 kts 163°
2026-04-29 16:18 51.47757 -1.21940 32768 ft 391 kts 179°
2026-04-29 16:18 51.45005 -1.22157 32925 ft 400 kts 181°
2026-04-29 16:19 51.42205 -1.22465 33105 ft 407 kts 181°
2026-04-29 16:19 51.39348 -1.22754 33264 ft 414 kts 181°
2026-04-29 16:19 51.36490 -1.22997 33424 ft 420 kts 181°
2026-04-29 16:19 51.33538 -1.23226 33575 ft 427 kts 182°
2026-04-29 16:20 51.30548 -1.23470 33816 ft 431 kts 182°
2026-04-29 16:20 51.27540 -1.23727 34124 ft 434 kts 181°
2026-04-29 16:20 51.24515 -1.23989 34357 ft 436 kts 181°
2026-04-29 16:20 51.21486 -1.24249 34700 ft 436 kts 182°
2026-04-29 16:21 51.18456 -1.24811 35039 ft 436 kts 191°
2026-04-29 16:21 51.12737 -1.27194 35162 ft 422 kts 194°
2026-04-29 16:22 51.06971 -1.29711 35196 ft 436 kts 193°
2026-04-29 16:22 51.01046 -1.32197 35186 ft 443 kts 193°
2026-04-29 16:23 50.95205 -1.35084 35191 ft 438 kts 202°
2026-04-29 16:23 50.89992 -1.40065 35195 ft 439 kts 212°
2026-04-29 16:24 50.84911 -1.45480 35189 ft 440 kts 211°
2026-04-29 16:24 50.79838 -1.50812 35169 ft 435 kts 209°
2026-04-29 16:25 50.74776 -1.56071 35144 ft 434 kts 210°
2026-04-29 16:25 50.69727 -1.61288 35138 ft 434 kts 211°
2026-04-29 16:26 50.64683 -1.66493 35152 ft 434 kts 211°
2026-04-29 16:26 50.59653 -1.71663 35134 ft 434 kts 210°
2026-04-29 16:27 50.54582 -1.76872 35127 ft 435 kts 209°
2026-04-29 16:27 50.49499 -1.82066 35117 ft 436 kts 209°
2026-04-29 16:28 50.44394 -1.87236 35131 ft 437 kts 210°
2026-04-29 16:28 50.39281 -1.92407 35117 ft 437 kts 208°
2026-04-29 16:29 50.34176 -1.97560 35109 ft 436 kts 210°
2026-04-29 16:29 50.29118 -2.02660 35105 ft 434 kts 210°
2026-04-29 16:30 50.24038 -2.07761 35098 ft 433 kts 208°
2026-04-29 16:30 50.18951 -2.12744 35100 ft 431 kts 209°
2026-04-29 16:31 50.13851 -2.17688 35096 ft 431 kts 206°
2026-04-29 16:31 50.08766 -2.22623 35097 ft 431 kts 207°
2026-04-29 16:32 50.03664 -2.27566 35086 ft 432 kts 209°
2026-04-29 16:32 49.98595 -2.32474 35084 ft 432 kts 209°
2026-04-29 16:33 49.90820 -2.39384 35249 ft 422 kts 201°
2026-04-29 16:33 49.88150 -2.41245 35491 ft 420 kts 200°
2026-04-29 16:33 49.85472 -2.43066 35733 ft 420 kts 201°
2026-04-29 16:34 49.82789 -2.44888 35986 ft 421 kts 200°
2026-04-29 16:34 49.80101 -2.46722 36232 ft 422 kts 201°
2026-04-29 16:34 49.77447 -2.48541 36497 ft 423 kts 200°
2026-04-29 16:34 49.74762 -2.50393 36754 ft 424 kts 200°
2026-04-29 16:35 49.72075 -2.52253 37010 ft 422 kts 201°
2026-04-29 16:35 49.69400 -2.54107 37031 ft 421 kts 202°
2026-04-29 16:35 49.64028 -2.57827 37030 ft 426 kts 202°
2026-04-29 16:36 49.58577 -2.61593 37033 ft 431 kts 201°
2026-04-29 16:36 49.53088 -2.65379 37024 ft 433 kts 202°
2026-04-29 16:37 49.47624 -2.69143 37047 ft 426 kts 202°
2026-04-29 16:37 49.43142 -2.72220 37028 ft 422 kts 201°
2026-04-29 16:38 49.36897 -2.76493 37018 ft 419 kts 202°
2026-04-29 16:38 49.31607 -2.80104 37024 ft 420 kts 201°
2026-04-29 16:39 49.26222 -2.83769 37022 ft 427 kts 202°
2026-04-29 16:39 49.20791 -2.87459 36997 ft 427 kts 202°
2026-04-29 16:40 49.15354 -2.91146 36997 ft 426 kts 202°
2026-04-29 16:40 49.09928 -2.94816 36995 ft 426 kts 202°
2026-04-29 16:41 49.04551 -2.98444 36974 ft 425 kts 202°
2026-04-29 16:41 48.99148 -3.02081 36982 ft 423 kts 202°
2026-04-29 16:42 48.93777 -3.05687 36983 ft 421 kts 202°
2026-04-29 16:42 48.88440 -3.09262 36998 ft 419 kts 202°
2026-04-29 16:43 48.83102 -3.12829 36986 ft 417 kts 202°
2026-04-29 16:43 48.77792 -3.16370 36993 ft 416 kts 202°
2026-04-29 16:44 48.72481 -3.19902 36994 ft 416 kts 202°
2026-04-29 16:44 48.67174 -3.23424 36996 ft 416 kts 202°
2026-04-29 16:45 48.61906 -3.26912 36971 ft 416 kts 202°
2026-04-29 16:45 48.56603 -3.30415 36992 ft 416 kts 202°
2026-04-29 16:46 48.51275 -3.33927 36971 ft 416 kts 202°
2026-04-29 16:46 48.45969 -3.37416 36971 ft 416 kts 202°
2026-04-29 16:47 48.40650 -3.40906 36966 ft 417 kts 202°
2026-04-29 16:47 48.35333 -3.44386 36998 ft 417 kts 202°
2026-04-29 16:48 48.30006 -3.47865 36965 ft 417 kts 202°
2026-04-29 16:48 48.25581 -3.50749 36948 ft 417 kts 202°
2026-04-29 16:49 48.19382 -3.54780 36955 ft 417 kts 202°
2026-04-29 16:49 48.14063 -3.58230 36946 ft 417 kts 202°
2026-04-29 16:50 48.09638 -3.61095 36946 ft 417 kts 202°
2026-04-29 16:50 48.04314 -3.64534 36944 ft 416 kts 202°
2026-04-29 16:51 47.98977 -3.67974 36947 ft 416 kts 202°
2026-04-29 16:51 47.93697 -3.71369 36941 ft 416 kts 202°
2026-04-29 16:52 47.88361 -3.74792 36935 ft 416 kts 202°
2026-04-29 16:52 47.83031 -3.78205 36937 ft 416 kts 202°
2026-04-29 16:53 47.77691 -3.81615 36934 ft 419 kts 201°
2026-04-29 16:53 47.72328 -3.85033 36929 ft 419 kts 201°
2026-04-29 16:54 47.66970 -3.88440 36929 ft 418 kts 201°
2026-04-29 16:54 47.61619 -3.91836 36926 ft 418 kts 201°
2026-04-29 16:55 47.56316 -3.95193 36927 ft 417 kts 201°
2026-04-29 16:55 47.50992 -3.98555 36923 ft 416 kts 201°
2026-04-29 16:56 47.45667 -4.01912 36922 ft 415 kts 201°
2026-04-29 16:56 47.40340 -4.05262 36921 ft 415 kts 201°
2026-04-29 16:57 47.35021 -4.08599 36919 ft 415 kts 201°
2026-04-29 16:57 47.29701 -4.11930 36912 ft 415 kts 202°
2026-04-29 16:58 47.24371 -4.15260 36947 ft 417 kts 201°
2026-04-29 16:58 47.19007 -4.18604 36912 ft 419 kts 201°
2026-04-29 16:59 47.13658 -4.21932 36906 ft 420 kts 201°
2026-04-29 16:59 47.08274 -4.25275 36900 ft 420 kts 201°
2026-04-29 17:00 47.02863 -4.28509 36905 ft 420 kts 199°
2026-04-29 17:00 46.97394 -4.31478 36901 ft 419 kts 199°
2026-04-29 17:01 46.91904 -4.34427 36898 ft 419 kts 199°
2026-04-29 17:01 46.86435 -4.37391 36897 ft 419 kts 199°
2026-04-29 17:02 46.80977 -4.40364 36898 ft 418 kts 199°
2026-04-29 17:02 46.75547 -4.43319 36899 ft 418 kts 199°
2026-04-29 17:03 46.70096 -4.46282 36896 ft 418 kts 199°
2026-04-29 17:03 46.64651 -4.49234 36896 ft 418 kts 199°
2026-04-29 17:04 46.59202 -4.52182 36898 ft 418 kts 199°
2026-04-29 17:04 46.53741 -4.55129 36887 ft 417 kts 199°
2026-04-29 17:05 46.48287 -4.58067 36891 ft 417 kts 199°
2026-04-29 17:05 46.42839 -4.60995 36890 ft 417 kts 199°
2026-04-29 17:06 46.37427 -4.63897 36884 ft 417 kts 199°
2026-04-29 17:06 46.31982 -4.66811 36884 ft 417 kts 199°
2026-04-29 17:07 46.26531 -4.69722 36870 ft 417 kts 199°
2026-04-29 17:07 46.21081 -4.72626 36875 ft 417 kts 199°
2026-04-29 17:08 46.15634 -4.75523 36878 ft 417 kts 199°
2026-04-29 17:08 46.10194 -4.78410 36880 ft 417 kts 199°
2026-04-29 17:09 46.04739 -4.81298 36871 ft 417 kts 199°
2026-04-29 17:09 45.99289 -4.84178 36869 ft 417 kts 199°
2026-04-29 17:10 45.93840 -4.87051 36867 ft 417 kts 199°
2026-04-29 17:10 45.88416 -4.89905 36860 ft 417 kts 199°
2026-04-29 17:11 45.82968 -4.92766 36862 ft 417 kts 199°
2026-04-29 17:11 45.77511 -4.95626 36854 ft 417 kts 199°
2026-04-29 17:12 45.72057 -4.98478 36856 ft 417 kts 199°
2026-04-29 17:12 45.67519 -5.00847 36853 ft 417 kts 199°
2026-04-29 17:13 45.61152 -5.04163 36857 ft 416 kts 199°
2026-04-29 17:13 45.55744 -5.06973 36860 ft 416 kts 199°
2026-04-29 17:14 45.50286 -5.09803 36857 ft 417 kts 199°
2026-04-29 17:14 45.44829 -5.12627 36846 ft 417 kts 199°
2026-04-29 17:15 45.39370 -5.15447 36850 ft 417 kts 199°
2026-04-29 17:15 45.33948 -5.18242 36849 ft 417 kts 199°
2026-04-29 17:16 45.28494 -5.21047 36850 ft 417 kts 199°
2026-04-29 17:16 45.23027 -5.23854 36850 ft 417 kts 199°
2026-04-29 17:17 45.17552 -5.26658 36846 ft 417 kts 199°
2026-04-29 17:17 45.12096 -5.29447 36847 ft 417 kts 199°
2026-04-29 17:18 45.06631 -5.32235 36840 ft 417 kts 199°
2026-04-29 17:18 45.01205 -5.34998 36843 ft 417 kts 199°
2026-04-29 17:19 44.95745 -5.37773 36850 ft 417 kts 199°
2026-04-29 17:19 44.90276 -5.40545 36843 ft 417 kts 199°
2026-04-29 17:20 44.84802 -5.43316 36836 ft 418 kts 199°
2026-04-29 17:20 44.79328 -5.46081 36842 ft 418 kts 199°
2026-04-29 17:21 44.73857 -5.48839 36844 ft 418 kts 199°
2026-04-29 17:21 44.68378 -5.51596 36841 ft 418 kts 199°
2026-04-29 17:22 44.62897 -5.54348 36841 ft 418 kts 199°
2026-04-29 17:22 44.57356 -5.56810 36846 ft 418 kts 195°
2026-04-29 17:23 44.51739 -5.58942 36849 ft 418 kts 195°
2026-04-29 17:23 44.46112 -5.61057 36829 ft 419 kts 195°
2026-04-29 17:24 44.40536 -5.63175 36839 ft 418 kts 195°
2026-04-29 17:24 44.34920 -5.65321 36835 ft 418 kts 195°
2026-04-29 17:25 44.29301 -5.67469 36836 ft 418 kts 195°
2026-04-29 17:25 44.23697 -5.69608 36833 ft 418 kts 195°
2026-04-29 17:26 44.18089 -5.71744 36841 ft 418 kts 195°
2026-04-29 17:26 44.12467 -5.73881 36834 ft 418 kts 195°
2026-04-29 17:27 44.06872 -5.76003 36835 ft 419 kts 195°
2026-04-29 17:27 44.01241 -5.78134 36837 ft 419 kts 195°
2026-04-29 17:28 43.95612 -5.80261 36832 ft 420 kts 195°
2026-04-29 17:28 43.89971 -5.82387 36832 ft 421 kts 195°
2026-04-29 17:29 43.84302 -5.84521 36832 ft 423 kts 195°
2026-04-29 17:29 43.79551 -5.86306 36832 ft 427 kts 195°
2026-04-29 17:30 43.72820 -5.88830 36816 ft 429 kts 195°
2026-04-29 17:30 43.67110 -5.90965 36817 ft 426 kts 195°
2026-04-29 17:31 43.61410 -5.93093 36823 ft 423 kts 195°
2026-04-29 17:31 43.55740 -5.95206 36845 ft 421 kts 195°
2026-04-29 17:32 43.50070 -5.97314 36822 ft 422 kts 195°
2026-04-29 17:32 43.44447 -5.99401 36825 ft 420 kts 195°
2026-04-29 17:33 43.38799 -6.01494 36825 ft 420 kts 195°
2026-04-29 17:33 43.33155 -6.03581 36830 ft 420 kts 195°
2026-04-29 17:34 43.27490 -6.05671 36823 ft 421 kts 195°
2026-04-29 17:34 43.21827 -6.07757 36833 ft 421 kts 195°
2026-04-29 17:35 43.13343 -6.10874 36818 ft 424 kts 195°
2026-04-29 17:36 43.07644 -6.12963 36829 ft 425 kts 195°
2026-04-29 17:36 43.01908 -6.15061 36820 ft 426 kts 195°
2026-04-29 17:37 42.96169 -6.17157 36831 ft 428 kts 195°
2026-04-29 17:37 42.90410 -6.19256 36822 ft 429 kts 195°
2026-04-29 17:38 42.84646 -6.21352 36814 ft 429 kts 195°
2026-04-29 17:38 42.78912 -6.23434 36814 ft 429 kts 195°
2026-04-29 17:39 42.73142 -6.25524 36815 ft 430 kts 195°
2026-04-29 17:39 42.68330 -6.27265 36815 ft 430 kts 195°
2026-04-29 17:40 42.62551 -6.29351 36819 ft 430 kts 195°
2026-04-29 17:40 42.56764 -6.31437 36813 ft 430 kts 195°
2026-04-29 17:41 42.50988 -6.33514 36816 ft 430 kts 195°
2026-04-29 17:41 42.45207 -6.35589 36822 ft 429 kts 195°
2026-04-29 17:42 42.39435 -6.37657 36821 ft 429 kts 195°
2026-04-29 17:42 42.33673 -6.39718 36827 ft 427 kts 195°
2026-04-29 17:43 42.27955 -6.41759 36823 ft 427 kts 195°
2026-04-29 17:43 42.22195 -6.43811 36823 ft 427 kts 195°
2026-04-29 17:44 42.16443 -6.45856 36833 ft 427 kts 195°
2026-04-29 17:44 42.10665 -6.47907 36838 ft 429 kts 195°
2026-04-29 17:45 42.04919 -6.49943 36839 ft 431 kts 195°
2026-04-29 17:45 41.99097 -6.52002 36834 ft 433 kts 195°
2026-04-29 17:46 41.93263 -6.54061 36846 ft 434 kts 195°
2026-04-29 17:46 41.87418 -6.56120 36831 ft 435 kts 195°
2026-04-29 17:47 41.81554 -6.58182 36839 ft 435 kts 195°
2026-04-29 17:47 41.75678 -6.60245 36833 ft 435 kts 195°
2026-04-29 17:48 41.69823 -6.62296 36840 ft 435 kts 195°
2026-04-29 17:48 41.63929 -6.64105 36844 ft 435 kts 193°
2026-04-29 17:49 41.58038 -6.65750 36840 ft 435 kts 193°
2026-04-29 17:49 41.52119 -6.67413 36841 ft 434 kts 193°
2026-04-29 17:50 41.46209 -6.69100 36844 ft 433 kts 193°
2026-04-29 17:50 41.40303 -6.70796 36841 ft 433 kts 193°
2026-04-29 17:51 41.34408 -6.72489 36837 ft 433 kts 193°
2026-04-29 17:51 41.28540 -6.74171 36843 ft 433 kts 193°
2026-04-29 17:52 41.22656 -6.75855 36849 ft 433 kts 193°
2026-04-29 17:52 41.16763 -6.77537 36850 ft 433 kts 193°
2026-04-29 17:53 41.10878 -6.79214 36844 ft 433 kts 193°
2026-04-29 17:53 41.04988 -6.80889 36853 ft 433 kts 193°
2026-04-29 17:54 40.99098 -6.82562 36860 ft 432 kts 193°
2026-04-29 17:54 40.93208 -6.84231 36860 ft 433 kts 193°
2026-04-29 17:55 40.87333 -6.85893 36849 ft 435 kts 194°
2026-04-29 17:55 40.81392 -6.87570 36856 ft 436 kts 194°
2026-04-29 17:56 40.75471 -6.89239 36866 ft 437 kts 194°
2026-04-29 17:56 40.69508 -6.90917 36861 ft 439 kts 194°
2026-04-29 17:57 40.63534 -6.92594 36858 ft 440 kts 194°
2026-04-29 17:57 40.57544 -6.94273 36870 ft 440 kts 194°
2026-04-29 17:58 40.51552 -6.95949 36868 ft 440 kts 194°
2026-04-29 17:58 40.45558 -6.97623 36875 ft 440 kts 194°
2026-04-29 17:59 40.39562 -6.99295 36863 ft 440 kts 194°
2026-04-29 17:59 40.33609 -7.00951 36869 ft 440 kts 194°
2026-04-29 18:00 40.27634 -7.02611 36886 ft 439 kts 195°
2026-04-29 18:00 40.21650 -7.04269 36881 ft 438 kts 195°
2026-04-29 18:01 40.15685 -7.05920 36880 ft 438 kts 195°
2026-04-29 18:01 40.09712 -7.07571 36872 ft 438 kts 195°
2026-04-29 18:02 40.03759 -7.09212 36877 ft 437 kts 195°
2026-04-29 18:02 39.97805 -7.10851 36878 ft 437 kts 195°
2026-04-29 18:03 39.91856 -7.12486 36880 ft 437 kts 195°
2026-04-29 18:03 39.85949 -7.14106 36877 ft 437 kts 195°
2026-04-29 18:04 39.79977 -7.15742 36858 ft 437 kts 195°
2026-04-29 18:04 39.74028 -7.17367 36876 ft 437 kts 195°
2026-04-29 18:05 39.68078 -7.18991 36880 ft 436 kts 195°
2026-04-29 18:05 39.62132 -7.20610 36873 ft 436 kts 195°
2026-04-29 18:06 39.56193 -7.22224 36877 ft 436 kts 196°
2026-04-29 18:06 39.50293 -7.23826 36875 ft 436 kts 196°
2026-04-29 18:07 39.44348 -7.25437 36876 ft 436 kts 196°
2026-04-29 18:07 39.38407 -7.27044 36880 ft 436 kts 196°
2026-04-29 18:08 39.32472 -7.28645 36869 ft 435 kts 197°
2026-04-29 18:08 39.28383 -7.29747 36880 ft 434 kts 197°
2026-04-29 18:09 39.22461 -7.31342 36881 ft 434 kts 197°
2026-04-29 18:09 39.16540 -7.32933 36887 ft 434 kts 197°
2026-04-29 18:10 39.10630 -7.34519 36868 ft 434 kts 197°
2026-04-29 18:10 39.04757 -7.36092 36877 ft 433 kts 197°
2026-04-29 18:11 38.98863 -7.37667 36899 ft 432 kts 197°
2026-04-29 18:11 38.92969 -7.39241 36884 ft 431 kts 197°
2026-04-29 18:12 38.87111 -7.40802 36864 ft 431 kts 198°
2026-04-29 18:12 38.81248 -7.42361 36883 ft 430 kts 198°
2026-04-29 18:13 38.75384 -7.43918 36888 ft 429 kts 198°
2026-04-29 18:13 38.69534 -7.45470 36898 ft 429 kts 198°
2026-04-29 18:14 38.63724 -7.47008 36882 ft 429 kts 198°
2026-04-29 18:14 38.57894 -7.48549 36896 ft 428 kts 198°
2026-04-29 18:15 38.52053 -7.50090 36902 ft 428 kts 198°
2026-04-29 18:15 38.46218 -7.51627 36910 ft 428 kts 198°
2026-04-29 18:16 38.40388 -7.53160 36862 ft 428 kts 198°
2026-04-29 18:16 38.34568 -7.54687 36899 ft 426 kts 198°
2026-04-29 18:17 38.28763 -7.56210 36908 ft 426 kts 198°
2026-04-29 18:17 38.22960 -7.57729 36909 ft 426 kts 198°
2026-04-29 18:18 38.17177 -7.59240 36912 ft 425 kts 198°
2026-04-29 18:18 38.11381 -7.60753 36930 ft 426 kts 198°
2026-04-29 18:19 38.05512 -7.61993 36921 ft 431 kts 193°
2026-04-29 18:19 37.99524 -7.62736 36915 ft 433 kts 192°
2026-04-29 18:20 37.93523 -7.63438 36869 ft 433 kts 192°
2026-04-29 18:20 37.87526 -7.64181 36909 ft 432 kts 193°
2026-04-29 18:21 37.81536 -7.64950 36919 ft 432 kts 193°
2026-04-29 18:21 37.75535 -7.65726 36915 ft 433 kts 193°
2026-04-29 18:22 37.69545 -7.66501 36906 ft 432 kts 193°
2026-04-29 18:22 37.63582 -7.67270 36926 ft 432 kts 193°
2026-04-29 18:23 37.57595 -7.68041 36923 ft 432 kts 193°
2026-04-29 18:23 37.51606 -7.68811 36923 ft 433 kts 193°
2026-04-29 18:24 37.45618 -7.69580 36902 ft 433 kts 193°
2026-04-29 18:24 37.39669 -7.70341 36919 ft 432 kts 193°
2026-04-29 18:25 37.33693 -7.71105 36933 ft 432 kts 193°
2026-04-29 18:25 37.27696 -7.71871 36931 ft 433 kts 193°
2026-04-29 18:26 37.21694 -7.72637 36909 ft 433 kts 193°
2026-04-29 18:26 37.15700 -7.73399 36944 ft 433 kts 193°
2026-04-29 18:27 37.09704 -7.74161 36937 ft 433 kts 192°
2026-04-29 18:27 37.03753 -7.74916 36937 ft 433 kts 192°
2026-04-29 18:28 36.97752 -7.75676 36911 ft 433 kts 192°
2026-04-29 18:28 36.91758 -7.76434 36936 ft 433 kts 192°
2026-04-29 18:29 36.85765 -7.77191 36953 ft 433 kts 192°
2026-04-29 18:29 36.80782 -7.77819 36944 ft 433 kts 192°
2026-04-29 18:30 36.74783 -7.78575 36947 ft 433 kts 192°
2026-04-29 18:30 36.68784 -7.79329 36951 ft 433 kts 192°
2026-04-29 18:31 36.62779 -7.80082 36959 ft 433 kts 192°
2026-04-29 18:31 36.56809 -7.80830 36956 ft 433 kts 192°
2026-04-29 18:32 36.50805 -7.81582 36957 ft 433 kts 192°
2026-04-29 18:32 36.41828 -7.82702 36953 ft 433 kts 191°
2026-04-29 18:33 36.35824 -7.83451 36964 ft 433 kts 191°
2026-04-29 18:33 36.29811 -7.84199 36961 ft 434 kts 191°
2026-04-29 18:34 36.24816 -7.84820 36960 ft 434 kts 191°
2026-04-29 18:34 36.17791 -7.85692 36959 ft 434 kts 191°
2026-04-29 18:35 36.11777 -7.86437 36960 ft 434 kts 191°
2026-04-29 18:35 36.05757 -7.87181 36962 ft 435 kts 191°
2026-04-29 18:36 35.99742 -7.87924 36962 ft 435 kts 191°
2026-04-29 18:36 35.93710 -7.88186 36969 ft 441 kts 181°
2026-04-29 18:37 35.87539 -7.87566 36962 ft 442 kts 180°
2026-04-29 18:37 35.81451 -7.86936 36965 ft 442 kts 181°
2026-04-29 18:38 35.75306 -7.86355 36961 ft 442 kts 181°
2026-04-29 18:38 35.69184 -7.85800 36964 ft 441 kts 181°
2026-04-29 18:39 35.63061 -7.85250 36964 ft 441 kts 181°
2026-04-29 18:39 35.58552 -7.84844 36964 ft 440 kts 181°
2026-04-29 18:40 35.52449 -7.84294 36964 ft 440 kts 181°
2026-04-29 18:40 35.46348 -7.83745 36960 ft 439 kts 181°
2026-04-29 18:41 35.34178 -7.82685 36967 ft 438 kts 181°
2026-04-29 18:42 35.28132 -7.82184 36968 ft 438 kts 181°
2026-04-29 18:42 35.22045 -7.81678 36955 ft 438 kts 181°
2026-04-29 18:43 35.15967 -7.81171 36968 ft 439 kts 181°
2026-04-29 18:43 35.09782 -7.80659 36980 ft 451 kts 181°
2026-04-29 18:44 35.03445 -7.80133 36978 ft 460 kts 180°
2026-04-29 18:44 34.97033 -7.79596 36956 ft 461 kts 180°
2026-04-29 18:45 34.90632 -7.79061 36964 ft 460 kts 180°
2026-04-29 18:45 34.84248 -7.78531 36972 ft 459 kts 180°
2026-04-29 18:46 34.77914 -7.78007 36973 ft 460 kts 180°
2026-04-29 18:46 34.71539 -7.77493 36960 ft 459 kts 181°
2026-04-29 18:47 34.65105 -7.77041 36976 ft 459 kts 181°
2026-04-29 18:47 34.58724 -7.76604 36974 ft 460 kts 181°
2026-04-29 18:48 34.52385 -7.76162 36972 ft 460 kts 181°
2026-04-29 18:48 34.45993 -7.75713 36970 ft 460 kts 181°
2026-04-29 18:49 34.39601 -7.75263 36971 ft 460 kts 181°
2026-04-29 18:49 34.33210 -7.74815 36976 ft 460 kts 181°
2026-04-29 18:50 34.26816 -7.74367 36976 ft 460 kts 181°
2026-04-29 18:50 34.20419 -7.73920 36967 ft 460 kts 181°
2026-04-29 18:51 34.14025 -7.73414 36981 ft 461 kts 180°
2026-04-29 18:51 34.07665 -7.72809 36972 ft 461 kts 179°
2026-04-29 18:52 34.01264 -7.72199 36975 ft 461 kts 180°
2026-04-29 18:52 33.94855 -7.71604 36956 ft 461 kts 180°
2026-04-29 18:53 33.88455 -7.71018 36969 ft 461 kts 180°
2026-04-29 18:53 33.82055 -7.70433 36970 ft 461 kts 180°
2026-04-29 18:54 33.75702 -7.69852 36973 ft 461 kts 180°
2026-04-29 18:54 33.69289 -7.69266 36958 ft 461 kts 180°
2026-04-29 18:55 33.62894 -7.68683 36968 ft 461 kts 180°
2026-04-29 18:55 33.56481 -7.68099 36966 ft 461 kts 180°
2026-04-29 18:56 33.50104 -7.66987 36960 ft 469 kts 167°
2026-04-29 18:56 33.43929 -7.64355 36941 ft 472 kts 164°
2026-04-29 18:57 33.37806 -7.61669 36959 ft 471 kts 165°
2026-04-29 18:57 33.31660 -7.59042 36851 ft 457 kts 165°
2026-04-29 18:58 33.28703 -7.57790 36450 ft 448 kts 165°
2026-04-29 18:58 33.25767 -7.56554 35833 ft 444 kts 165°
2026-04-29 18:58 33.22868 -7.55337 34978 ft 439 kts 165°
2026-04-29 18:58 33.19982 -7.54125 33877 ft 440 kts 165°
2026-04-29 18:59 33.17088 -7.52909 32550 ft 442 kts 165°
2026-04-29 18:59 33.14196 -7.51697 31488 ft 437 kts 166°
2026-04-29 18:59 33.11294 -7.50810 30626 ft 424 kts 174°
2026-04-29 18:59 33.08411 -7.50478 29800 ft 411 kts 183°
2026-04-29 19:00 33.05595 -7.50495 29132 ft 398 kts 184°
2026-04-29 19:00 33.02881 -7.50519 28652 ft 391 kts 184°
2026-04-29 19:00 33.00172 -7.50534 28181 ft 387 kts 183°
2026-04-29 19:00 32.97498 -7.50536 27740 ft 381 kts 183°
2026-04-29 19:01 32.94858 -7.50531 27301 ft 377 kts 183°
2026-04-29 19:01 32.92247 -7.50521 26852 ft 373 kts 182°
2026-04-29 19:01 32.89664 -7.50510 26439 ft 369 kts 182°
2026-04-29 19:01 32.87103 -7.50500 26021 ft 371 kts 182°
2026-04-29 19:02 32.84474 -7.50484 25608 ft 384 kts 182°
2026-04-29 19:02 32.82658 -7.50469 25308 ft 387 kts 182°
2026-04-29 19:02 32.79120 -7.50431 24706 ft 380 kts 182°